[[{"header":{"parameterUnit":"m.s-1","parameterCategory":1,"la1":30.2991,"la2":30.254,"lo1":-89.0895,"lo2":-89.0444,"dy":0.0017,"dx":0.0017,"nx":28,"ny":28,"refTime":"2024-09-02T09:00:00:Z","depth":0,"parameterNumber":2,"parameterNumberName":"U-component_of_WINDS"},"data":[0,0,0,0,0,0,0,0,0,0,0,0,0,0,0,0,0,0,0,0,0,0,0,0,0,0,0,0,0,0,0,0,0,0,0,0,0,0,0,0,0,0,0,0,0,0,0,0,0,0,0,0,0,0,0,0,0,0,-1.8276,-1.8276,0,-1.8303,-1.8303,-1.8304,-1.8259,-1.8258,-1.8256,-1.8255,-1.8285,-1.8287,-1.829,0,0,0,0,0,0,0,0,0,0,0,0,0,-1.8188,-1.819,-1.8276,-1.8277,-1.8277,-1.8303,-1.8303,-1.8304,-1.8259,-1.8258,-1.8256,-1.8254,-1.8285,-1.8287,-1.829,0,0,0,0,0,0,0,0,0,0,0,0,0,-1.8222,-1.819,-1.8276,-1.8258,-1.8256,-1.8303,-1.8303,-1.8304,-1.826,-1.8258,-1.8255,-1.8253,-1.8284,-1.8287,-1.829,-1.8357,0,0,-1.8301,-1.8302,0,0,0,0,0,0,0,0,-1.822,-1.8225,-1.826,-1.8259,-1.8258,-1.8275,-1.8283,-1.8322,-1.826,-1.8259,-1.8255,-1.8252,-1.8284,-1.8287,-1.8297,-1.8358,-1.836,-1.8301,-1.8303,-1.8304,-1.8305,0,0,0,0,0,0,0,-1.8217,-1.8224,-1.8287,-1.8261,-1.8259,-1.8249,-1.8251,-1.8291,-1.8284,-1.8259,-1.8255,-1.8259,-1.8283,-1.8294,-1.8298,-1.836,-1.8301,-1.8304,-1.8306,-1.8307,-1.8475,-1.8477,0,0,0,0,0,0,-1.8217,-1.8222,-1.8286,-1.8288,-1.8233,-1.8252,-1.8255,-1.8272,-1.8283,-1.8283,-1.8261,-1.8257,-1.829,-1.8294,-1.8299,-1.8376,-1.8304,-1.8307,-1.8309,-1.8473,-1.8476,-1.8478,0,0,0,0,0,0,-1.8215,-1.8223,-1.8285,-1.8254,-1.8261,-1.8256,-1.8276,-1.8274,-1.8285,-1.8285,-1.8284,-1.8274,-1.8288,-1.8294,-1.8342,-1.8377,-1.8309,-1.8312,-1.847,-1.8474,-1.8477,-1.8532,0,0,0,0,0,0,-1.8213,-1.8223,-1.8248,-1.8255,-1.8263,-1.8328,-1.8278,-1.8276,-1.8291,-1.8285,-1.8297,-1.8296,-1.8287,-1.8337,-1.8345,-1.838,-1.8315,-1.8467,-1.8471,-1.8476,-1.8527,-1.8537,-1.8546,0,0,0,0,0,-1.821,-1.8264,-1.825,-1.8258,-1.8294,-1.833,-1.8334,-1.8321,-1.8294,-1.8319,-1.8318,-1.8296,-1.8372,-1.8343,-1.8351,-1.8388,-1.8464,-1.847,-1.8475,-1.8523,-1.8535,-1.8546,0,0,0,0,0,0,-1.8263,-1.8264,-1.8249,-1.8306,-1.8318,-1.8322,-1.8354,-1.8335,-1.8356,-1.835,-1.8334,-1.8337,-1.8388,-1.8393,-1.8361,-1.8452,-1.8413,-1.8421,-1.8447,-1.8458,-1.8467,-1.8465,-1.8317,0,0,0,0,0,-1.8281,-1.8309,-1.8309,-1.836,-1.8366,-1.8359,-1.8374,-1.8363,-1.8375,-1.838,-1.8384,-1.8397,-1.8423,-1.8441,-1.8466,-1.8528,-1.8529,-1.8557,-1.8566,-1.8574,-1.858,-1.8612,-1.8624,-1.8496,-1.8496,-1.8496,0,0,-1.8319,-1.8323,-1.8343,-1.837,-1.8378,-1.8408,-1.8364,-1.8398,-1.842,-1.8386,-1.843,-1.8433,-1.8447,-1.8502,-1.8526,-1.8507,-1.8616,-1.8581,-1.8587,-1.8589,-1.8619,-1.8631,-1.8641,-1.85,-1.8499,-1.8499,0,0,-1.8403,-1.841,-1.8452,-1.846,-1.8472,-1.8466,-1.8476,-1.8483,-1.8483,-1.8527,-1.8502,-1.8528,-1.8574,-1.8584,-1.8596,-1.8682,-1.8661,-1.869,-1.8739,-1.877,-1.878,-1.8788,-1.8818,-1.8828,-1.8697,-1.8697,-1.8697,0,-1.845,-1.8493,-1.8476,-1.8511,-1.8523,-1.8492,-1.8534,-1.8544,-1.8563,-1.8573,-1.8551,-1.8607,-1.8614,-1.867,-1.8691,-1.8701,-1.8712,-1.8689,-1.8779,-1.8788,-1.8796,-1.8824,-1.8835,-1.87,-1.87,-1.87,-1.8699,0,-1.8548,-1.8578,-1.8611,-1.8628,-1.8645,-1.8684,-1.8673,-1.8691,-1.8678,-1.8675,-1.872,-1.8727,-1.8751,-1.8764,-1.8752,-1.8818,-1.8805,-1.8782,-1.8743,-1.8812,-1.8837,-1.8848,-1.8705,-1.8704,-1.8703,-1.8702,0,0,-1.8667,-1.8674,-1.8686,-1.8693,-1.8703,-1.8726,-1.8763,-1.8785,-1.8801,-1.8815,-1.8845,-1.8884,-1.8861,-1.8874,-1.8863,-1.889,-1.8956,-1.8863,-1.8863,-1.8879,-1.9026,-1.9043,-1.9056,-1.8942,-1.8944,-1.8946,-1.9025,0,-1.875,-1.8812,-1.8797,-1.8858,-1.8885,-1.8855,-1.8887,-1.8897,-1.8894,-1.8917,-1.8915,-1.8942,-1.8911,-1.8918,-1.8943,-1.8942,-1.8985,-1.8937,-1.8969,-1.8971,-1.8966,-1.907,-1.9088,-1.9162,-1.9035,-1.9037,-1.9038,0,-1.8855,-1.8871,-1.8935,-1.8938,-1.8949,-1.8978,-1.8996,-1.9018,-1.9028,-1.9024,-1.9037,-1.902,-1.9056,-1.9017,-1.9066,-1.9033,-1.9046,-1.9047,-1.905,-1.9052,-1.9008,-1.9073,-1.9186,-1.9197,-1.9054,-1.9053,-1.9051,0,-1.8934,-1.8972,-1.9014,-1.9021,-1.9027,-1.9047,-1.9051,-1.9058,-1.9072,-1.9088,-1.9096,-1.9118,-1.9129,-1.9145,-1.9134,-1.9107,-1.9184,-1.9145,-1.9182,-1.9182,-1.9199,-1.9198,-1.9314,-1.9209,-1.9209,-1.9209,-1.9209,0,-1.9027,-1.9067,-1.9049,-1.9075,-1.9118,-1.9101,-1.9145,-1.9145,-1.9151,-1.9176,-1.9153,-1.9177,-1.9161,-1.9184,-1.9176,-1.9217,-1.9223,-1.922,-1.9217,-1.9222,-1.9222,-1.9229,-1.9223,-1.9212,-1.9211,-1.9211,-1.921,0,-1.9123,-1.9112,-1.9156,-1.9157,-1.9158,-1.919,-1.919,-1.9214,-1.9209,-1.9242,-1.9248,-1.9241,-1.9267,-1.9257,-1.9286,-1.928,-1.9331,-1.9322,-1.9327,-1.9325,-1.9362,-1.9358,-1.9486,-1.9501,-1.9387,-1.9389,-1.9389,0,-1.9182,-1.9212,-1.9215,-1.9229,-1.9234,-1.9258,-1.9271,-1.9255,-1.927,-1.9282,-1.9305,-1.9328,-1.9345,-1.9388,-1.9385,-1.9406,-1.9397,-1.944,-1.94,-1.9403,-1.9396,-1.9394,-1.9396,-1.9448,-1.945,-1.9451,-1.9451,0,-1.9289,-1.9282,-1.9301,-1.9318,-1.9334,-1.9348,-1.9359,-1.9372,-1.9357,-1.9375,-1.94,-1.9413,-1.944,-1.9464,-1.9482,-1.9486,-1.9466,-1.9464,-1.9473,-1.9478,-1.9479,-1.9477,-1.9348,-1.9461,-1.946,-1.946,-1.9459,-1.9459,-1.9367,-1.9391,-1.9396,-1.9418,-1.9424,-1.9435,-1.9457,-1.9454,-1.9474,-1.9494,-1.9484,-1.9512,-1.952,-1.9542,-1.9548,-1.9571,-1.9554,-1.9568,-1.9571,-1.9574,-1.9578,-1.9476,-1.9574,-1.9574,-1.9574,-1.9573,-1.9573,0,-1.9471,-1.9472,-1.9493,-1.9508,-1.9525,-1.9504,-1.9514,-1.953,-1.9555,-1.9564,-1.9581,-1.9609,-1.9631,-1.9629,-1.9649,-1.9667,-1.9658,-1.9673,-1.9671,-1.9671,-1.9593,-1.9582,-1.9679,-1.9679,-1.9679,-1.9679,-1.9679,-1.9679,-1.9527,-1.9565,-1.9559,-1.96,-1.9601,-1.9628,-1.9636,-1.9645,-1.9651,-1.9683,-1.9701,-1.9699,-1.9703,-1.9723,-1.9741,-1.974,-1.9748,-1.9766,-1.9761,-1.9688,-1.9677,-1.9667,-1.9657,-1.9768,-1.9768,-1.9837,-1.9838,-1.9838]},{"header":{"parameterUnit":"m.s-1","parameterCategory":1,"la1":30.2991,"la2":30.254,"lo1":-89.0895,"lo2":-89.0444,"dy":0.0017,"dx":0.0017,"nx":28,"ny":28,"refTime":"2024-09-02T09:00:00:Z","depth":0,"parameterNumber":3,"parameterNumberName":"V-component_of_WINDS"},"data":[0,0,0,0,0,0,0,0,0,0,0,0,0,0,0,0,0,0,0,0,0,0,0,0,0,0,0,0,0,0,0,0,0,0,0,0,0,0,0,0,0,0,0,0,0,0,0,0,0,0,0,0,0,0,0,0,0,0,-2.8444,-2.8445,0,-2.8473,-2.8473,-2.8473,-2.8444,-2.8443,-2.8442,-2.8441,-2.8468,-2.847,-2.8471,0,0,0,0,0,0,0,0,0,0,0,0,0,-2.8363,-2.8365,-2.8444,-2.8445,-2.8445,-2.8473,-2.8473,-2.8473,-2.8445,-2.8443,-2.8442,-2.8441,-2.8467,-2.8469,-2.8472,0,0,0,0,0,0,0,0,0,0,0,0,0,-2.8396,-2.8365,-2.8444,-2.8434,-2.8433,-2.8473,-2.8473,-2.8473,-2.8445,-2.8443,-2.8441,-2.844,-2.8467,-2.8469,-2.8472,-2.8522,0,0,-2.848,-2.8481,0,0,0,0,0,0,0,0,-2.8394,-2.8399,-2.8435,-2.8435,-2.8434,-2.8453,-2.8454,-2.849,-2.8445,-2.844,-2.8441,-2.8439,-2.8464,-2.8467,-2.8476,-2.8523,-2.8524,-2.848,-2.8482,-2.8483,-2.8484,0,0,0,0,0,0,0,-2.8392,-2.8397,-2.8455,-2.8436,-2.8435,-2.8427,-2.843,-2.8461,-2.8461,-2.8441,-2.8439,-2.8443,-2.8464,-2.8474,-2.8476,-2.8525,-2.848,-2.8482,-2.8484,-2.8485,-2.8613,-2.8615,0,0,0,0,0,0,-2.8391,-2.8395,-2.8455,-2.8456,-2.841,-2.843,-2.8433,-2.8449,-2.8461,-2.8461,-2.8444,-2.8441,-2.847,-2.8473,-2.8477,-2.8536,-2.8483,-2.8485,-2.8487,-2.8611,-2.8613,-2.8615,0,0,0,0,0,0,-2.8389,-2.8396,-2.8453,-2.8425,-2.8432,-2.8433,-2.8451,-2.845,-2.846,-2.8463,-2.8463,-2.8454,-2.8469,-2.8474,-2.8511,-2.8536,-2.8487,-2.8489,-2.8609,-2.8612,-2.8614,-2.8653,0,0,0,0,0,0,-2.8387,-2.8396,-2.8416,-2.8426,-2.8434,-2.8487,-2.8453,-2.8452,-2.8465,-2.8461,-2.8473,-2.8473,-2.8468,-2.8507,-2.8514,-2.8539,-2.8491,-2.8607,-2.861,-2.8614,-2.865,-2.8657,-2.8663,0,0,0,0,0,-2.8384,-2.8425,-2.8417,-2.8424,-2.8458,-2.8489,-2.8493,-2.8487,-2.8467,-2.8486,-2.8488,-2.8473,-2.8533,-2.8511,-2.8518,-2.8545,-2.8605,-2.8609,-2.8613,-2.8647,-2.8656,-2.8663,0,0,0,0,0,0,-2.8417,-2.8426,-2.8417,-2.8463,-2.8476,-2.8484,-2.8508,-2.8497,-2.8514,-2.851,-2.8501,-2.8504,-2.8543,-2.8548,-2.8524,-2.8593,-2.8565,-2.8571,-2.8589,-2.8597,-2.8604,-2.8601,-2.8493,0,0,0,0,0,-2.843,-2.8455,-2.8461,-2.8501,-2.8508,-2.8507,-2.852,-2.8514,-2.8526,-2.8531,-2.8536,-2.8548,-2.8569,-2.8584,-2.8604,-2.8651,-2.8652,-2.8672,-2.8679,-2.8685,-2.8689,-2.8713,-2.8722,-2.8629,-2.8629,-2.8629,0,0,-2.8456,-2.8464,-2.848,-2.8508,-2.8517,-2.8542,-2.8512,-2.854,-2.8558,-2.8535,-2.8571,-2.8575,-2.8587,-2.863,-2.8648,-2.8635,-2.8715,-2.869,-2.8694,-2.8696,-2.8718,-2.8727,-2.8735,-2.8631,-2.8631,-2.8631,0,0,-2.8516,-2.8526,-2.8559,-2.8569,-2.8583,-2.8582,-2.859,-2.8601,-2.8603,-2.8638,-2.8622,-2.8643,-2.868,-2.869,-2.8699,-2.8763,-2.8749,-2.877,-2.8805,-2.8828,-2.8836,-2.8842,-2.8864,-2.8872,-2.8775,-2.8775,-2.8775,0,-2.8547,-2.8585,-2.8578,-2.8607,-2.8619,-2.8601,-2.8634,-2.8643,-2.8663,-2.8672,-2.8656,-2.8702,-2.8709,-2.8753,-2.8768,-2.8777,-2.8785,-2.8768,-2.8835,-2.8842,-2.8847,-2.8868,-2.8876,-2.8777,-2.8777,-2.8776,-2.8776,0,-2.8621,-2.8647,-2.8673,-2.8693,-2.8708,-2.8739,-2.8736,-2.8752,-2.8744,-2.8745,-2.8781,-2.8789,-2.881,-2.882,-2.8813,-2.8862,-2.8853,-2.8837,-2.8808,-2.8859,-2.8878,-2.8886,-2.878,-2.878,-2.8779,-2.8778,0,0,-2.8702,-2.8718,-2.8728,-2.8736,-2.875,-2.877,-2.88,-2.8821,-2.8834,-2.8848,-2.8872,-2.8904,-2.8889,-2.89,-2.8894,-2.8915,-2.8963,-2.8895,-2.8895,-2.8907,-2.9017,-2.9028,-2.9037,-2.8954,-2.8956,-2.8957,-2.9015,0,-2.8762,-2.8815,-2.8809,-2.8859,-2.8882,-2.8865,-2.8891,-2.8902,-2.8903,-2.8923,-2.8924,-2.8946,-2.8925,-2.8931,-2.8951,-2.8953,-2.8985,-2.8949,-2.8975,-2.8976,-2.8971,-2.9047,-2.906,-2.9114,-2.9023,-2.9024,-2.9025,0,-2.8839,-2.8856,-2.8908,-2.8918,-2.8928,-2.8951,-2.897,-2.8989,-2.9001,-2.9,-2.9012,-2.9002,-2.9031,-2.9003,-2.9042,-2.9018,-2.9029,-2.9031,-2.9033,-2.9034,-2.9003,-2.905,-2.9132,-2.914,-2.9037,-2.9036,-2.9035,0,-2.8892,-2.8928,-2.8964,-2.8972,-2.8984,-2.9001,-2.9007,-2.9017,-2.903,-2.9046,-2.9053,-2.9072,-2.9082,-2.9097,-2.9092,-2.9072,-2.9132,-2.9103,-2.9131,-2.9131,-2.9143,-2.9142,-2.9227,-2.9152,-2.9152,-2.9152,-2.9152,0,-2.8959,-2.8991,-2.8987,-2.9009,-2.9044,-2.9038,-2.9072,-2.9076,-2.9085,-2.9107,-2.9093,-2.9113,-2.9106,-2.9126,-2.9122,-2.9154,-2.9159,-2.9158,-2.9157,-2.9159,-2.9159,-2.9165,-2.9161,-2.9154,-2.9153,-2.9153,-2.9153,0,-2.9023,-2.9022,-2.906,-2.9069,-2.9072,-2.9097,-2.9104,-2.9124,-2.9125,-2.9152,-2.9158,-2.9158,-2.918,-2.9177,-2.9202,-2.9199,-2.9239,-2.9233,-2.9235,-2.9233,-2.926,-2.9257,-2.9351,-2.9362,-2.9281,-2.9282,-2.9283,0,-2.9065,-2.9089,-2.9101,-2.9115,-2.9122,-2.9144,-2.9157,-2.9151,-2.9165,-2.918,-2.9198,-2.9219,-2.9236,-2.9272,-2.9274,-2.9292,-2.9286,-2.9318,-2.9289,-2.929,-2.9285,-2.9283,-2.9285,-2.9323,-2.9324,-2.9325,-2.9325,0,-2.9139,-2.9138,-2.9157,-2.9177,-2.9192,-2.9207,-2.922,-2.9232,-2.9228,-2.9244,-2.9267,-2.928,-2.9305,-2.9325,-2.9343,-2.9348,-2.9336,-2.9335,-2.9342,-2.9344,-2.9343,-2.9342,-2.9249,-2.9332,-2.9332,-2.9331,-2.9331,-2.933,-2.9193,-2.9213,-2.9225,-2.9247,-2.9256,-2.9269,-2.9288,-2.9291,-2.931,-2.933,-2.9326,-2.9351,-2.9361,-2.9384,-2.9391,-2.941,-2.9398,-2.9409,-2.9411,-2.9413,-2.9416,-2.9341,-2.9413,-2.9413,-2.9413,-2.9413,-2.9412,0,-2.9265,-2.9272,-2.9292,-2.9311,-2.9328,-2.9316,-2.933,-2.9345,-2.9368,-2.9379,-2.9396,-2.9421,-2.9441,-2.9445,-2.9464,-2.9478,-2.9473,-2.9483,-2.9481,-2.9482,-2.9426,-2.9418,-2.9487,-2.9487,-2.9487,-2.9487,-2.9487,-2.9487,-2.9305,-2.9338,-2.9338,-2.9376,-2.9382,-2.9407,-2.9416,-2.9427,-2.9436,-2.9466,-2.9483,-2.9485,-2.9493,-2.9512,-2.9529,-2.953,-2.9537,-2.9549,-2.9547,-2.9494,-2.9487,-2.9479,-2.9471,-2.9551,-2.9551,-2.9601,-2.9602,-2.9602]}]]